TimeCDT,TemperatureF,Dew PointF,Humidity,Sea Level PressureIn,VisibilityMPH,Wind Direction,Wind SpeedMPH,Gust SpeedMPH,PrecipitationIn,Events,Conditions,WindDirDegrees,DateUTC
12:15 AM,41.2,41.0,99,29.64,0.8,SSW,3.5,-,N/A,,Mist,200,2013-04-08 05:15:00
12:35 AM,42.8,42.4,99,29.64,1.0,Calm,Calm,-,N/A,,Mist,0,2013-04-08 05:35:00
12:55 AM,42.6,42.3,99,29.64,1.0,Calm,Calm,-,N/A,,Mist,0,2013-04-08 05:55:00
1:15 AM,42.4,42.3,99,29.63,1.2,Calm,Calm,-,N/A,,Mist,0,2013-04-08 06:15:00
1:35 AM,42.8,42.8,100,29.64,7.0,SW,5.8,-,N/A,,Clear,220,2013-04-08 06:35:00
1:55 AM,42.3,42.1,99,29.64,7.0,South,4.6,-,N/A,,Clear,190,2013-04-08 06:55:00
2:15 AM,40.8,40.5,99,29.64,7.0,Calm,Calm,-,N/A,,Clear,0,2013-04-08 07:15:00
2:35 AM,39.7,39.6,99,29.64,0.5,Calm,Calm,-,N/A,Fog,Fog,0,2013-04-08 07:35:00
2:55 AM,38.5,38.3,99,29.64,0.8,Calm,Calm,-,N/A,,Mist,0,2013-04-08 07:55:00
3:15 AM,36.0,35.8,99,29.64,1.0,Calm,Calm,-,N/A,,Mist,0,2013-04-08 08:15:00
3:35 AM,36.5,36.3,99,29.64,0.5,Calm,Calm,-,N/A,Fog,Fog,0,2013-04-08 08:35:00
3:55 AM,36.5,36.5,100,29.64,0.8,Calm,Calm,-,N/A,,Mist,0,2013-04-08 08:55:00
4:15 AM,35.4,35.4,100,29.64,1.0,Calm,Calm,-,N/A,,Mist,0,2013-04-08 09:15:00
4:35 AM,35.8,35.8,100,29.63,0.8,Calm,Calm,-,N/A,,Mist,0,2013-04-08 09:35:00
4:55 AM,34.0,34.0,100,29.63,0.2,Calm,Calm,-,N/A,Fog,Fog,0,2013-04-08 09:55:00
5:15 AM,32.5,32.5,100,29.63,0.2,Calm,Calm,-,N/A,Fog,Fog,0,2013-04-08 10:15:00
5:35 AM,33.1,33.1,100,29.63,0.2,Calm,Calm,-,N/A,Fog,Fog,0,2013-04-08 10:35:00
5:55 AM,34.0,34.0,100,29.63,0.5,Calm,Calm,-,N/A,Fog,Fog,0,2013-04-08 10:55:00
6:15 AM,33.8,33.8,100,29.63,0.5,Calm,Calm,-,N/A,Fog,Fog,0,2013-04-08 11:15:00
6:35 AM,33.1,33.1,100,29.64,0.5,SSW,3.5,-,N/A,Fog,Fog,210,2013-04-08 11:35:00
6:55 AM,32.9,32.9,100,29.64,0.2,Calm,Calm,-,N/A,Fog,Fog,0,2013-04-08 11:55:00
7:15 AM,32.9,32.9,100,29.65,0.2,Calm,Calm,-,N/A,Fog,Fog,0,2013-04-08 12:15:00
7:35 AM,33.3,33.3,100,29.65,2.0,Calm,Calm,-,N/A,,Clear,0,2013-04-08 12:35:00
7:55 AM,33.8,33.8,100,29.64,0.2,Calm,Calm,-,N/A,Fog,Fog,0,2013-04-08 12:55:00
8:15 AM,36.7,36.7,100,29.65,0.5,Calm,Calm,-,N/A,Fog,Fog,0,2013-04-08 13:15:00
8:35 AM,41.9,41.7,99,29.64,5.0,Calm,Calm,-,N/A,,Mostly Cloudy,0,2013-04-08 13:35:00
8:55 AM,48.2,48.2,100,29.64,7.0,SSW,4.6,-,N/A,,Mostly Cloudy,200,2013-04-08 13:55:00
9:15 AM,52.9,52.9,100,29.65,10.0,SW,10.4,-,N/A,,Overcast,220,2013-04-08 14:15:00
9:35 AM,52.9,52.9,100,29.66,7.0,SW,8.1,-,N/A,,Overcast,230,2013-04-08 14:35:00
9:55 AM,53.6,53.4,99,29.66,10.0,WSW,4.6,-,N/A,,Overcast,240,2013-04-08 14:55:00
10:15 AM,54.7,54.5,99,29.66,10.0,West,6.9,-,N/A,,Mostly Cloudy,280,2013-04-08 15:15:00
10:35 AM,55.8,54.5,96,29.67,10.0,West,4.6,-,N/A,,Scattered Clouds,280,2013-04-08 15:35:00
10:55 AM,57.4,54.7,91,29.68,10.0,NW,3.5,-,N/A,,Scattered Clouds,310,2013-04-08 15:55:00
11:15 AM,59.4,53.8,82,29.68,10.0,NNW,3.5,-,N/A,,Clear,340,2013-04-08 16:15:00
11:35 AM,61.0,51.8,72,29.69,10.0,Calm,Calm,-,N/A,,Mostly Cloudy,0,2013-04-08 16:35:00
11:55 AM,62.2,51.8,69,29.69,10.0,Calm,Calm,-,N/A,,Mostly Cloudy,0,2013-04-08 16:55:00
12:15 PM,62.8,52.0,68,29.69,10.0,East,10.4,-,N/A,,Scattered Clouds,100,2013-04-08 17:15:00
12:35 PM,63.5,51.3,64,29.69,10.0,ESE,9.2,-,N/A,,Scattered Clouds,110,2013-04-08 17:35:00
12:55 PM,64.4,50.9,62,29.69,10.0,ESE,8.1,-,N/A,,Clear,110,2013-04-08 17:55:00
1:15 PM,65.3,50.2,58,29.68,10.0,SE,6.9,-,N/A,,Clear,140,2013-04-08 18:15:00
1:35 PM,66.9,48.9,52,29.68,10.0,SE,9.2,-,N/A,,Clear,140,2013-04-08 18:35:00
1:55 PM,67.5,46.9,48,29.67,10.0,Calm,Calm,-,N/A,,Clear,0,2013-04-08 18:55:00
2:15 PM,68.9,47.5,46,29.67,10.0,Calm,Calm,-,N/A,,Clear,0,2013-04-08 19:15:00
2:35 PM,70.9,45.3,40,29.67,10.0,Calm,Calm,-,N/A,,Clear,0,2013-04-08 19:35:00
2:55 PM,71.4,44.6,38,29.67,10.0,SW,6.9,-,N/A,,Clear,220,2013-04-08 19:55:00
3:15 PM,71.6,43.2,36,29.67,10.0,SSW,5.8,-,N/A,,Clear,200,2013-04-08 20:15:00
3:35 PM,72.1,43.3,35,29.66,10.0,WSW,5.8,-,N/A,,Clear,250,2013-04-08 20:35:00
3:55 PM,73.8,42.4,32,29.66,10.0,Calm,Calm,-,N/A,,Clear,0,2013-04-08 20:55:00
4:15 PM,74.1,41.7,31,29.66,10.0,Calm,Calm,-,N/A,,Clear,0,2013-04-08 21:15:00
4:35 PM,72.9,43.5,35,29.66,10.0,SSW,3.5,-,N/A,,Clear,210,2013-04-08 21:35:00
4:55 PM,72.5,43.2,35,29.66,10.0,South,3.5,-,N/A,,Clear,180,2013-04-08 21:55:00
5:15 PM,72.5,43.9,36,29.66,10.0,South,5.8,-,N/A,,Clear,170,2013-04-08 22:15:00
5:35 PM,72.5,43.3,35,29.66,10.0,East,4.6,-,N/A,,Clear,80,2013-04-08 22:35:00
5:55 PM,73.0,42.3,33,29.67,10.0,ENE,4.6,-,N/A,,Clear,70,2013-04-08 22:55:00
6:15 PM,72.9,42.3,33,29.68,10.0,ENE,5.8,-,N/A,,Clear,70,2013-04-08 23:15:00
6:35 PM,69.1,47.5,46,29.69,10.0,North,12.7,-,N/A,,Clear,10,2013-04-08 23:35:00
6:55 PM,67.3,47.7,49,29.69,10.0,NNE,11.5,-,N/A,,Clear,20,2013-04-08 23:55:00
7:15 PM,66.2,47.8,52,29.70,10.0,NE,8.1,-,N/A,,Clear,50,2013-04-09 00:15:00
7:35 PM,63.7,47.7,56,29.71,10.0,NE,12.7,20.7,N/A,,Clear,40,2013-04-09 00:35:00
7:55 PM,61.7,47.7,60,29.73,10.0,NE,18.4,-,N/A,,Scattered Clouds,50,2013-04-09 00:55:00
8:15 PM,60.3,48.2,64,29.73,10.0,NE,19.6,27.6,N/A,,Mostly Cloudy,50,2013-04-09 01:15:00
8:35 PM,58.8,48.2,68,29.74,10.0,NE,20.7,-,N/A,,Overcast,40,2013-04-09 01:35:00
8:55 PM,57.0,48.0,72,29.76,10.0,NE,23.0,28.8,N/A,,Mostly Cloudy,40,2013-04-09 01:55:00
9:15 PM,53.8,47.3,79,29.77,7.0,NE,21.9,-,N/A,,Overcast,40,2013-04-09 02:15:00
9:35 PM,51.8,46.8,83,29.78,7.0,NE,21.9,-,N/A,,Scattered Clouds,40,2013-04-09 02:35:00
9:55 PM,50.9,46.6,85,29.79,7.0,NE,24.2,32.2,N/A,,Mostly Cloudy,40,2013-04-09 02:55:00
10:15 PM,49.8,45.9,86,29.79,7.0,NE,21.9,31.1,N/A,,Overcast,40,2013-04-09 03:15:00
10:35 PM,49.1,45.7,88,29.79,5.0,NE,21.9,33.4,N/A,,Overcast,50,2013-04-09 03:35:00
10:55 PM,48.4,45.5,90,29.76,5.0,NE,27.6,33.4,N/A,,Overcast,40,2013-04-09 03:55:00
11:15 PM,48.2,45.7,91,29.78,5.0,NE,21.9,34.5,N/A,,Overcast,50,2013-04-09 04:15:00
11:35 PM,48.2,45.5,90,29.76,5.0,ENE,24.2,29.9,N/A,Thunderstorm,Overcast,60,2013-04-09 04:35:00
11:55 PM,47.5,45.9,94,29.77,4.0,NE,21.9,31.1,N/A,Rain-Thunderstorm,Rain,40,2013-04-09 04:55:00